Location: Spruce Knob
(38.6995°N, 79.5330°W)
Time: 16:06:47
(UTC-04:00)

CAS-6 - Visible Passes

Search period start: 30 March 2023 00:00
Search period end: 09 April 2023 00:00
Orbit: 612 x 632 km, 97.9° (Epoch: 30 March)

Date Brightness Start Highest point End Pass type
(mag) Time Alt. Az. Time Alt. Az. Time Alt. Az.
04 Apr ? 23:21:46 10° N 23:21:46 10° N 23:21:48 10° N visible
05 Apr ? 23:39:42 10° N 23:39:42 10° N 23:39:45 10° N visible
08 Apr ? 22:56:18 12° NNE 22:56:18 12° NNE 22:56:35 10° NNE visible
